Overview Statistics Trail Chart Weather Telemetry Raw packets
 

This is the latest recevied weather packets stored in our database for station/object K6GMW. If no packets are shown the sender has not sent any weather packets the latest 10 day(s).

<< 73 74 75 76 77 78 79 >>
Time Temp. Humidity Pressure Rain* Wind** Luminosity Snow
1788103490 32.22° C 55% 1018.6 hPa 0 mm - 658 W/m² -
1788103189 31.67° C 56% 1018.8 hPa 0 mm - 645 W/m² -
1788102884 31.67° C 60% 1018.9 hPa 0 mm - 630 W/m² -
1788102584 31.67° C 61% 1018.8 hPa 0 mm - 607 W/m² -
1788102278 31.67° C 61% 1018.9 hPa 0 mm - 592 W/m² -
1788101977 31.11° C 62% 1018.6 hPa 0 mm - 580 W/m² -
1788101672 30.56° C 63% 1018.8 hPa 0 mm - 557 W/m² -
1788101368 30.56° C 63% 1019 hPa 0 mm - 540 W/m² -
1788101065 30.56° C 64% 1019 hPa 0 mm - 522 W/m² -
1788100765 30.56° C 65% 1018.9 hPa 0 mm - 508 W/m² -
1788100460 30° C 64% 1019 hPa 0 mm - 490 W/m² -
1788100159 30° C 66% 1019.1 hPa 0 mm - 474 W/m² -
1788099854 29.44° C 67% 1019 hPa 0 mm - 452 W/m² -
1788099549 29.44° C 67% 1018.9 hPa 0 mm - 434 W/m² -
1788099244 28.89° C 69% 1019 hPa 0 mm - 414 W/m² -
1788098940 28.89° C 70% 1019.1 hPa 0 mm - 394 W/m² -
1788098640 28.89° C 70% 1019 hPa 0 mm - 374 W/m² -
1788098339 28.33° C 69% 1019 hPa 0 mm - 353 W/m² -
1788098034 28.33° C 71% 1018.9 hPa 0 mm - 332 W/m² -
1788097730 27.78° C 72% 1018.8 hPa 0 mm - 311 W/m² -
1788097425 27.22° C 73% 1019 hPa 0 mm - 291 W/m² -
1788097121 26.67° C 74% 1019.2 hPa 0 mm - 138 W/m² -
1788096817 26.67° C 74% 1018.9 hPa 0 mm - 103 W/m² -
1788096512 26.67° C 74% 1018.9 hPa 0 mm - 115 W/m² -
1788096208 26.11° C 75% 1018.9 hPa 0 mm - 87 W/m² -

* Rain latest hour (hover to see other rain measurements)
** Current wind speed in m/s (hover to see current wind gust speed)